This is the latest recevied weather packets stored in our database for station/object KC3VCX. If no packets are shown the sender has not sent any weather packets the latest 10 day(s).
| Time | Temp. | Humidity | Pressure | Rain* | Wind** | Luminosity | Snow |
|---|---|---|---|---|---|---|---|
| 1777978285 | 15.56° C | 68% | 1011 hPa | 0 mm | - | 26 W/m² | - |
| 1777977982 | 15.56° C | 68% | 1010.6 hPa | 0 mm | - | 20 W/m² | - |
| 1777977680 | 15.56° C | 68% | 1010.6 hPa | 0 mm | - | 15 W/m² | - |
| 1777977376 | 15.56° C | 68% | 1010.5 hPa | 0 mm | - | 14 W/m² | - |
| 1777977074 | 15.56° C | 67% | 1010.7 hPa | 0 mm | - | 13 W/m² | - |
| 1777976771 | 15.56° C | 69% | 1010.6 hPa | 0 mm | - | 9 W/m² | - |
| 1777976469 | 15.56° C | 68% | 1010.4 hPa | 0 mm | - | 6 W/m² | - |
| 1777976167 | 15.56° C | 69% | 1010.4 hPa | 0 mm | - | 3 W/m² | - |
| 1777975863 | 15.56° C | 69% | 1010.2 hPa | 0 mm | - | 2 W/m² | - |
| 1777975559 | 15.56° C | 69% | 1010.2 hPa | 0 mm | - | 1 W/m² | - |
| 1777975256 | 15.56° C | 70% | 1010.1 hPa | 0 mm | - | 0 W/m² | - |
| 1777974953 | 15.56° C | 69% | 1010.2 hPa | 0 mm | - | 0 W/m² | - |
| 1777974649 | 15.56° C | 69% | 1010.1 hPa | 0 mm | - | 0 W/m² | - |
| 1777974345 | 15.56° C | 70% | 1010 hPa | 0 mm | - | 0 W/m² | - |
| 1777974042 | 15° C | 70% | 1010 hPa | 0 mm | - | 0 W/m² | - |
| 1777973738 | 15° C | 72% | 1009.9 hPa | 0 mm | - | 0 W/m² | - |
| 1777973436 | 15° C | 70% | 1009.9 hPa | 0 mm | - | 0 W/m² | - |
| 1777973133 | 15° C | 72% | 1009.8 hPa | 0 mm | - | 0 W/m² | - |
| 1777972831 | 15° C | 72% | 1010 hPa | 0 mm | - | 0 W/m² | - |
| 1777972528 | 14.44° C | 74% | 1010 hPa | 0 mm | - | 0 W/m² | - |
| 1777972226 | 14.44° C | 74% | 1009.9 hPa | 0 mm | - | 0 W/m² | - |
| 1777971924 | 13.89° C | 76% | 1010 hPa | 0 mm | - | 0 W/m² | - |
| 1777971622 | 13.89° C | 76% | 1009.9 hPa | 0 mm | - | 0 W/m² | - |
| 1777971319 | 13.89° C | 77% | 1009.8 hPa | 0 mm | - | 0 W/m² | - |
| 1777971017 | 14.44° C | 77% | 1009.9 hPa | 0 mm | - | 0 W/m² | - |
* Rain latest hour (hover to see other rain measurements)
** Current wind speed in m/s (hover to see current wind gust speed)